Weather History for Pampa / Mesa Vista, TX

Change the Weather History Date:

Monday, December 10, 2012

  Actual Average (KBGD) Record (KBGD)
Temperature  
Mean Temperature 24 °F 39 °F  
Max Temperature 41 °F 51 °F 73 °F (1981)
Min Temperature 6 °F 28 °F 5 °F (1972)
Degree Days  
Heating Degree Days 42 26  
Month to date heating degree days 245  
Since 1 July heating degree days 962  
Cooling Degree Days 0 0  
Month to date cooling degree days 0  
Year to date cooling degree days 1839  
Moisture  
Dew Point 4 °F    
Average Humidity 44    
Maximum Humidity 73    
Minimum Humidity 17    
Precipitation  
Precipitation 0.00 in 0.02 in 0.48 in (1964)
Month to date precipitation 0.18  
Year to date precipitation 21.13  
Snow  
Snow 0.00 in - - ()
Month to date snowfall  
Since 1 July snowfall  
Snow Depth -    
Sea Level Pressure  
Sea Level Pressure 30.08 in    
Wind  
Wind Speed 9 mph (WSW)    
Max Wind Speed 20 mph    
Max Gust Speed 24 mph    
Visibility 10 miles    
Events      
T = Trace of Precipitation, MM = Missing Value Source: NWS Daily Summary

Daily Weather History Graph

Daily Weather History Graph

Search for Another Location

Airport:

Trip Planner

Search our weather history database for the weather conditions in past years. The results will help you decide how hot, cold, wet, or windy it might be!

Date:

Astronomy

Dec. 10, 2012 Rise Set
Actual Time 7:43 AM CST 5:30 PM CST
Civil Twilight 7:15 AM CST 5:58 PM CST
Nautical Twilight 6:43 AM CST 6:30 PM CST
Astronomical Twilight 6:12 AM CST 7:01 PM CST
Moon 4:33 AM CST (12/10) 3:18 PM CST (12/10)
Length of Visible Light 10h 43m
Length of Day
9h 46m
Waning Crescent, 10% of the Moon is Illuminated
Dec 10
Waning Crescent
Dec 13
New
Dec 19
First Quarter
Dec 28
Full
Jan 4
Last Quarter

Hourly Weather History & Observations

Time (CST) Temp. Windchill Dew Point Humidity Pressure Visibility Wind Dir Wind Speed Gust Speed Precip Events Conditions
12:15 AM 23.0 °F 11.7 °F 3.2 °F 43% 30.23 in 10.0 mi North 11.5 mph 20.7 mph N/A   Clear
12:35 AM 23.0 °F 8.3 °F 3.2 °F 43% 30.22 in 10.0 mi North 19.6 mph 24.2 mph N/A   Clear
12:55 AM 23.0 °F 13.9 °F 3.2 °F 43% 30.23 in 10.0 mi NNW 8.1 mph - N/A   Clear
1:15 AM 21.2 °F 8.3 °F 3.2 °F 46% 30.23 in 10.0 mi NNW 13.8 mph 17.3 mph N/A   Clear
1:35 AM 21.2 °F 8.9 °F 3.2 °F 46% 30.23 in 10.0 mi North 12.7 mph - N/A   Clear
1:55 AM 19.4 °F 11.5 °F 1.4 °F 46% 30.21 in 10.0 mi NNW 5.8 mph - N/A   Clear
2:15 AM 19.4 °F 10.4 °F 3.2 °F 49% 30.20 in 10.0 mi NNW 6.9 mph - N/A   Clear
2:35 AM 17.6 °F 8.2 °F 1.4 °F 49% 30.19 in 10.0 mi NNW 6.9 mph - N/A   Clear
2:55 AM 17.6 °F 7.3 °F 1.4 °F 49% 30.19 in 10.0 mi NNW 8.1 mph - N/A   Clear
3:15 AM 17.6 °F 6.4 °F 1.4 °F 49% 30.19 in 10.0 mi NNW 9.2 mph - N/A   Clear
3:35 AM 17.6 °F 7.3 °F 1.4 °F 49% 30.18 in 10.0 mi NNW 8.1 mph - N/A   Clear
3:55 AM 17.6 °F 6.4 °F 1.4 °F 49% 30.18 in 10.0 mi NNW 9.2 mph - N/A   Clear
4:15 AM 15.8 °F 6.1 °F 1.4 °F 53% 30.17 in 10.0 mi NNW 6.9 mph - N/A   Clear
4:35 AM 15.8 °F 6.1 °F 1.4 °F 53% 30.18 in 10.0 mi NW 6.9 mph - N/A   Clear
4:55 AM 12.2 °F 4.3 °F 1.4 °F 62% 30.17 in 10.0 mi WNW 4.6 mph - N/A   Clear
5:15 AM 10.4 °F -0.4 °F -0.4 °F 62% 30.17 in 10.0 mi West 6.9 mph - N/A   Clear
5:35 AM 10.4 °F -2.4 °F -0.4 °F 62% 30.16 in 10.0 mi West 9.2 mph - N/A   Clear
5:55 AM 10.4 °F -1.5 °F -0.4 °F 62% 30.16 in 10.0 mi West 8.1 mph - N/A   Clear
6:15 AM 8.6 °F -1.3 °F -0.4 °F 67% 30.16 in 10.0 mi WSW 5.8 mph - N/A   Clear
6:35 AM 8.6 °F -2.6 °F -0.4 °F 67% 30.17 in 10.0 mi WSW 6.9 mph - N/A   Clear
6:55 AM 8.6 °F -1.3 °F -0.4 °F 67% 30.17 in 10.0 mi WSW 5.8 mph - N/A   Clear
7:15 AM 6.8 °F -5.9 °F -0.4 °F 72% 30.16 in 10.0 mi WSW 8.1 mph - N/A   Clear
7:35 AM 6.8 °F -5.9 °F -0.4 °F 72% 30.17 in 10.0 mi WSW 8.1 mph - N/A   Clear
7:55 AM 8.6 °F -2.6 °F 1.4 °F 73% 30.17 in 10.0 mi WSW 6.9 mph - N/A   Clear
8:15 AM 10.4 °F - 1.4 °F 67% 30.17 in 10.0 mi Calm Calm - N/A   Clear
8:35 AM 12.2 °F 4.3 °F 3.2 °F 67% 30.17 in 10.0 mi SW 4.6 mph - N/A   Clear
8:55 AM 15.8 °F 7.2 °F 3.2 °F 58% 30.17 in 10.0 mi WSW 5.8 mph - N/A   Clear
9:15 AM 17.6 °F 9.3 °F 3.2 °F 53% 30.16 in 10.0 mi WSW 5.8 mph - N/A   Clear
9:35 AM 21.2 °F 13.6 °F 5.0 °F 50% 30.16 in 10.0 mi WSW 5.8 mph - N/A   Clear
9:55 AM 24.8 °F 16.9 °F 5.0 °F 43% 30.16 in 10.0 mi West 6.9 mph - N/A   Clear
10:15 AM 26.6 °F 19.1 °F 5.0 °F 40% 30.15 in 10.0 mi WSW 6.9 mph - N/A   Clear
10:35 AM 28.4 °F 19.1 °F 6.8 °F 40% 30.14 in 10.0 mi West 10.4 mph - N/A   Clear
10:55 AM 30.2 °F 21.3 °F 6.8 °F 37% 30.13 in 10.0 mi West 10.4 mph - N/A   Clear
11:15 AM 32.0 °F 24.2 °F 6.8 °F 35% 30.11 in 10.0 mi WSW 9.2 mph - N/A   Clear
11:35 AM 33.8 °F 27.0 °F 5.0 °F 30% 30.10 in 10.0 mi WSW 8.1 mph - N/A   Clear
11:55 AM 33.8 °F 27.7 °F 5.0 °F 30% 30.09 in 10.0 mi WSW 6.9 mph - N/A   Clear
12:15 PM 35.6 °F 29.2 °F 5.0 °F 28% 30.07 in 10.0 mi SW 8.1 mph - N/A   Clear
12:35 PM 37.4 °F 30.3 °F 5.0 °F 26% 30.05 in 10.0 mi West 10.4 mph - N/A   Clear
12:55 PM 37.4 °F 30.8 °F -0.4 °F 20% 30.03 in 10.0 mi WSW 9.2 mph - N/A   Clear
1:15 PM 39.2 °F 33.6 °F -2.2 °F 17% 30.01 in 10.0 mi SW 8.1 mph - N/A   Clear
1:35 PM 39.2 °F 32.0 °F -2.2 °F 17% 29.99 in 10.0 mi SSW 11.5 mph - N/A   Clear
1:55 PM 41.0 °F 36.4 °F -0.4 °F 18% 29.99 in 10.0 mi WSW 6.9 mph - N/A   Clear
2:15 PM 41.0 °F 34.3 °F -0.4 °F 18% 29.98 in 10.0 mi WSW 11.5 mph - N/A   Clear
2:35 PM 41.0 °F 33.5 °F -0.4 °F 18% 29.98 in 10.0 mi WSW 13.8 mph 18.4 mph N/A   Clear
2:55 PM 41.0 °F 35.8 °F 1.4 °F 19% 29.97 in 10.0 mi West 8.1 mph - N/A   Clear
3:15 PM 41.0 °F 35.8 °F 5.0 °F 23% 29.97 in 10.0 mi West 8.1 mph - N/A   Clear
3:35 PM 41.0 °F 35.8 °F 5.0 °F 23% 29.96 in 10.0 mi WSW 8.1 mph - N/A   Clear
3:55 PM 41.0 °F 35.2 °F 5.0 °F 23% 29.96 in 10.0 mi West 9.2 mph 16.1 mph N/A   Clear
4:15 PM 41.0 °F 35.8 °F 5.0 °F 23% 29.96 in 10.0 mi WSW 8.1 mph - N/A   Clear
4:35 PM 41.0 °F 35.2 °F 5.0 °F 23% 29.95 in 10.0 mi SW 9.2 mph - N/A   Unknown
5:15 PM 37.4 °F 34.9 °F 5.0 °F 26% 29.95 in 10.0 mi SW 3.5 mph - N/A   Clear
5:35 PM 35.6 °F 31.7 °F 5.0 °F 28% 29.95 in 10.0 mi SW 4.6 mph - N/A   Unknown
5:55 PM 33.8 °F 29.6 °F 5.0 °F 30% 29.94 in 10.0 mi SSW 4.6 mph - N/A   Clear
6:15 PM 28.4 °F 22.2 °F 3.2 °F 34% 29.95 in 10.0 mi SSW 5.8 mph - N/A   Clear
6:35 PM 28.4 °F 21.2 °F 3.2 °F 34% 29.95 in 10.0 mi SSW 6.9 mph - N/A   Clear
6:55 PM 26.6 °F 16.8 °F 8.6 °F 47% 29.94 in 10.0 mi South 10.4 mph - N/A   Clear
7:15 PM 28.4 °F 20.4 °F 8.6 °F 43% 29.95 in 10.0 mi South 8.1 mph - N/A   Clear
7:35 PM 28.4 °F 19.7 °F 8.6 °F 43% 29.95 in 10.0 mi South 9.2 mph - N/A   Clear
7:55 PM 26.6 °F 17.5 °F 8.6 °F 47% 29.94 in 10.0 mi South 9.2 mph - N/A   Clear
8:15 PM 28.4 °F 19.7 °F 10.4 °F 47% 29.95 in 10.0 mi South 9.2 mph - N/A   Clear
8:55 PM 26.6 °F 17.5 °F 8.6 °F 47% 29.96 in 10.0 mi South 9.2 mph - N/A   Clear
9:15 PM 26.6 °F 17.5 °F 10.4 °F 51% 29.96 in 10.0 mi SSW 9.2 mph - N/A   Clear
9:35 PM 28.4 °F 20.4 °F 10.4 °F 47% 29.97 in 10.0 mi SSW 8.1 mph - N/A   Clear
9:55 PM 26.6 °F 19.1 °F 10.4 °F 51% 29.97 in 10.0 mi SSW 6.9 mph - N/A   Clear
10:15 PM 23.0 °F 14.7 °F 8.6 °F 54% 29.97 in 10.0 mi SW 6.9 mph - N/A   Clear
10:35 PM 23.0 °F 14.7 °F 10.4 °F 59% 29.98 in 10.0 mi WSW 6.9 mph - N/A   Clear
10:55 PM 21.2 °F 12.6 °F 10.4 °F 63% 29.99 in 10.0 mi SW 6.9 mph - N/A   Clear
11:15 PM 24.8 °F 15.3 °F 12.2 °F 59% 29.98 in 10.0 mi SW 9.2 mph - N/A   Clear
11:35 PM 26.6 °F 20.0 °F 14.0 °F 59% 29.98 in 10.0 mi SW 5.8 mph - N/A   Clear
11:55 PM 26.6 °F - 14.0 °F 59% 29.99 in 10.0 mi Calm Calm - N/A   Clear